Lorentz, WV

9:15 AM EDT on August 25, 2016 (GMT -0400)
Buckhannon

Weather History for KW22 - February, 2013

Change the Weather History Date:

Tuesday, February 19, 2013

  Actual Average (KEKN) Record (KEKN)
Temperature  
Mean Temperature 37 °F 33 °F  
Max Temperature 46 °F 44 °F 73 °F (1939)
Min Temperature 28 °F 22 °F -5 °F (1978)
Degree Days  
Heating Degree Days 28 32  
Month to date heating degree days 641  
Since 1 July heating degree days 4042  
Cooling Degree Days 0 0  
Month to date cooling degree days 0  
Year to date cooling degree days 0  
Moisture  
Dew Point 29 °F    
Average Humidity 70    
Maximum Humidity 93    
Minimum Humidity 43    
Precipitation  
Precipitation 0.05 in 0.11 in 1.08 in (1924)
Month to date precipitation 2.06  
Year to date precipitation 5.29  
Snow  
Snow 0.00 in - - ()
Month to date snowfall  
Since 1 September snowfall  
Snow Depth -    
Sea Level Pressure  
Sea Level Pressure 29.84 in    
Wind  
Wind Speed 13 mph (SW)    
Max Wind Speed 30 mph    
Max Gust Speed 47 mph    
Visibility 9 miles    
Events Rain , Snow    
T = Trace of Precipitation, MM = Missing Value Source: NWS Daily Summary

Daily Weather History Graph

Daily Weather History Graph

Search for Another Location

Airport or City:

Trip Planner

Search our weather history database for the weather conditions in past years. The results will help you decide how hot, cold, wet, or windy it might be!

Date:

Astronomy

Feb. 19, 2013 Rise Set
Actual Time 7:07 AM EST 6:03 PM EST
Civil Twilight 6:39 AM EST 6:30 PM EST
Nautical Twilight 6:08 AM EST 7:01 PM EST
Astronomical Twilight 5:37 AM EST 7:32 PM EST
Moon 12:35 PM EST (2/19) 2:36 AM EST (2/19)
Length of Visible Light 11h 50m
Length of Day
10h 56m
Waxing Gibbous, 67% of the Moon is Illuminated
Feb 19
Waxing Gibbous
Feb 25
Full
Mar 4
Last Quarter
Mar 11
New
Mar 19
First Quarter

Hourly Weather History & Observations

Time (EST) Temp. Windchill Dew Point Humidity Pressure Visibility Wind Dir Wind Speed Gust Speed Precip Events Conditions
12:15 AM 44.6 °F 38.8 °F 23.0 °F 43% 29.93 in 10.0 mi South 11.5 mph - N/A   Clear
12:35 AM 42.8 °F 38.6 °F 23.0 °F 46% 29.93 in 10.0 mi South 6.9 mph - N/A   Clear
12:55 AM 42.8 °F 37.5 °F 23.0 °F 46% 29.92 in 10.0 mi South 9.2 mph - N/A   Clear
1:15 AM 44.6 °F 39.2 °F 23.0 °F 43% 29.90 in 10.0 mi SSE 10.4 mph - N/A   Clear
1:35 AM 44.6 °F 39.2 °F 23.0 °F 43% 29.89 in 10.0 mi South 10.4 mph - N/A   Clear
2:15 AM 44.6 °F 41.4 °F 23.0 °F 43% 29.86 in 10.0 mi South 5.8 mph - N/A   Clear
2:35 AM 44.6 °F 40.7 °F 23.0 °F 43% 29.87 in 10.0 mi South 6.9 mph - N/A   Mostly Cloudy
2:55 AM 44.6 °F - 23.0 °F 43% 29.88 in 10.0 mi Calm Calm - N/A   Scattered Clouds
3:15 AM 44.6 °F 42.2 °F 23.0 °F 43% 29.84 in 10.0 mi South 4.6 mph - N/A   Partly Cloudy
3:35 AM 44.6 °F 42.2 °F 24.8 °F 46% 29.83 in 10.0 mi SSE 4.6 mph - N/A   Partly Cloudy
3:55 AM 44.6 °F 41.4 °F 24.8 °F 46% 29.84 in 10.0 mi SSW 5.8 mph - N/A   Mostly Cloudy
4:15 AM 46.4 °F 40.4 °F 24.8 °F 43% 29.85 in 10.0 mi SW 13.8 mph 20.7 mph N/A   Mostly Cloudy
4:35 AM 44.6 °F 35.1 °F 32.0 °F 61% 29.84 in 6.0 mi SSW 27.6 mph 47.2 mph N/A Rain Light Rain
4:55 AM 42.8 °F 32.3 °F 33.8 °F 70% 29.85 in 4.0 mi SW 29.9 mph 43.7 mph 0.02 in   Scattered Clouds
5:15 AM 39.2 °F 30.2 °F 33.8 °F 81% 29.84 in 7.0 mi SSW 17.3 mph 34.5 mph N/A Rain Light Rain
5:35 AM 39.2 °F 32.0 °F 33.8 °F 81% 29.84 in 10.0 mi South 11.5 mph - N/A Rain Light Rain
5:55 AM 41.0 °F 31.4 °F 33.8 °F 76% 29.83 in 9.0 mi South 21.9 mph 27.6 mph N/A   Mostly Cloudy
6:15 AM 39.2 °F 29.6 °F 35.6 °F 87% 29.82 in 8.0 mi South 19.6 mph 26.5 mph N/A   Overcast
6:35 AM 37.4 °F 28.2 °F 35.6 °F 93% 29.81 in 10.0 mi South 16.1 mph - N/A Rain Light Rain
6:55 AM 37.4 °F 29.8 °F 35.6 °F 93% 29.81 in 10.0 mi South 11.5 mph - 0.01 in   Mostly Cloudy
7:15 AM 37.4 °F 29.3 °F 35.6 °F 93% 29.80 in 10.0 mi South 12.7 mph - N/A   Scattered Clouds
7:35 AM 39.2 °F 31.6 °F 35.6 °F 87% 29.79 in 10.0 mi South 12.7 mph 18.4 mph N/A   Scattered Clouds
7:55 AM 39.2 °F 30.8 °F 33.8 °F 81% 29.79 in 10.0 mi SSW 15.0 mph 20.7 mph N/A   Mostly Cloudy
8:15 AM 41.0 °F 31.6 °F 35.6 °F 81% 29.78 in 9.0 mi SSW 20.7 mph 26.5 mph N/A Rain Light Rain
8:55 AM 41.0 °F 32.5 °F 35.6 °F 81% 29.78 in 9.0 mi SSW 17.3 mph 25.3 mph N/A Rain Light Rain
9:15 AM 39.2 °F 32.5 °F 37.4 °F 93% 29.78 in 8.0 mi SSW 10.4 mph 18.4 mph N/A Rain Light Rain
9:35 AM 39.2 °F 30.8 °F 37.4 °F 93% 29.78 in 9.0 mi SSW 15.0 mph 23.0 mph N/A Rain Light Rain
9:55 AM 39.2 °F 29.6 °F 37.4 °F 93% 29.77 in 10.0 mi SSW 19.6 mph 26.5 mph N/A Rain Light Rain
10:15 AM 39.2 °F 31.2 °F 37.4 °F 93% 29.77 in 8.0 mi SSW 13.8 mph 19.6 mph N/A   Overcast
10:35 AM 41.0 °F 33.5 °F 37.4 °F 87% 29.77 in 10.0 mi SSW 13.8 mph 24.2 mph N/A   Overcast
10:55 AM 41.0 °F 32.5 °F 37.4 °F 87% 29.77 in 10.0 mi SSW 17.3 mph 23.0 mph N/A   Overcast
11:15 AM 42.8 °F 35.1 °F 35.6 °F 76% 29.76 in 10.0 mi SW 16.1 mph 24.2 mph N/A   Overcast
11:35 AM 41.0 °F 33.5 °F 37.4 °F 87% 29.76 in 7.0 mi SW 13.8 mph 26.5 mph N/A   Overcast
11:55 AM 42.8 °F 34.8 °F 37.4 °F 81% 29.75 in 10.0 mi SW 17.3 mph 28.8 mph N/A   Overcast
12:15 PM 42.8 °F 34.3 °F 35.6 °F 76% 29.74 in 10.0 mi SW 19.6 mph 29.9 mph N/A   Overcast
12:35 PM 42.8 °F 33.8 °F 35.6 °F 76% 29.73 in 5.0 mi SSW 21.9 mph 31.1 mph N/A   Overcast
12:55 PM 41.0 °F 32.8 °F 39.2 °F 93% 29.73 in 2.0 mi SW 16.1 mph 25.3 mph 0.01 in Rain Light Rain
1:15 PM 39.2 °F 30.2 °F 37.4 °F 93% 29.74 in 10.0 mi West 17.3 mph 29.9 mph N/A   Overcast
1:35 PM 37.4 °F 26.9 °F 35.6 °F 93% 29.75 in 10.0 mi West 20.7 mph 29.9 mph N/A   Overcast
1:55 PM 37.4 °F 26.6 °F 33.8 °F 87% 29.76 in 10.0 mi West 21.9 mph 29.9 mph N/A   Overcast
2:15 PM 37.4 °F 26.6 °F 32.0 °F 81% 29.77 in 10.0 mi West 21.9 mph 32.2 mph N/A   Overcast
2:55 PM 37.4 °F 26.9 °F 30.2 °F 75% 29.77 in 10.0 mi West 20.7 mph 28.8 mph N/A   Mostly Cloudy
3:15 PM 39.2 °F 30.8 °F 30.2 °F 70% 29.76 in 10.0 mi SW 15.0 mph 24.2 mph N/A   Partly Cloudy
3:55 PM 37.4 °F 28.9 °F 30.2 °F 75% 29.78 in 10.0 mi WSW 13.8 mph 20.7 mph N/A   Partly Cloudy
4:15 PM 37.4 °F 28.2 °F 30.2 °F 75% 29.79 in 8.0 mi West 16.1 mph 21.9 mph 0.01 in   Partly Cloudy
4:55 PM 37.4 °F 27.2 °F 26.6 °F 65% 29.81 in 10.0 mi West 19.6 mph 27.6 mph 0.01 in   Mostly Cloudy
5:15 PM 37.4 °F 27.5 °F 24.8 °F 60% 29.83 in 10.0 mi West 18.4 mph 26.5 mph N/A   Mostly Cloudy
5:35 PM 35.6 °F 24.2 °F 23.0 °F 60% 29.84 in 10.0 mi West 21.9 mph 27.6 mph N/A   Mostly Cloudy
5:55 PM 35.6 °F 27.1 °F 23.0 °F 60% 29.85 in 10.0 mi West 12.7 mph 20.7 mph N/A   Mostly Cloudy
6:15 PM 33.8 °F 25.8 °F 23.0 °F 65% 29.86 in 10.0 mi West 10.4 mph 19.6 mph N/A   Scattered Clouds
7:15 PM 33.8 °F 23.5 °F 23.0 °F 65% 29.90 in 10.0 mi WNW 16.1 mph 23.0 mph N/A   Mostly Cloudy
7:35 PM 32.0 °F 20.5 °F 23.0 °F 69% 29.90 in 10.0 mi WNW 18.4 mph 28.8 mph N/A Rain Light Rain
7:55 PM 32.0 °F 22.1 °F 23.0 °F 69% 29.91 in 10.0 mi West 13.8 mph 24.2 mph N/A   Scattered Clouds
8:15 PM 32.0 °F 22.5 °F 23.0 °F 69% 29.91 in 10.0 mi West 12.7 mph 23.0 mph N/A   Scattered Clouds
8:35 PM 32.0 °F 22.5 °F 21.2 °F 64% 29.92 in 10.0 mi West 12.7 mph 26.5 mph N/A   Mostly Cloudy
8:55 PM 32.0 °F 23.0 °F 21.2 °F 64% 29.92 in 10.0 mi West 11.5 mph 25.3 mph N/A Snow Light Snow
9:15 PM 32.0 °F 22.1 °F 19.4 °F 60% 29.92 in 10.0 mi West 13.8 mph 25.3 mph N/A   Mostly Cloudy
9:35 PM 32.0 °F 21.2 °F 19.4 °F 60% 29.93 in 10.0 mi West 16.1 mph 29.9 mph N/A   Scattered Clouds
9:55 PM 32.0 °F 22.5 °F 19.4 °F 60% 29.94 in 10.0 mi WNW 12.7 mph 20.7 mph N/A Snow Light Snow
10:15 PM 30.2 °F 18.5 °F 19.4 °F 64% 29.94 in 10.0 mi West 17.3 mph 26.5 mph N/A   Mostly Cloudy
10:35 PM 30.2 °F 17.8 °F 19.4 °F 64% 29.94 in 10.0 mi West 19.6 mph 28.8 mph N/A   Mostly Cloudy
10:55 PM 30.2 °F 17.4 °F 17.6 °F 60% 29.95 in 9.0 mi West 20.7 mph 31.1 mph N/A Snow Light Snow
11:15 PM 30.2 °F 18.1 °F 17.6 °F 60% 29.95 in 9.0 mi West 18.4 mph 33.4 mph N/A Snow Light Snow
11:35 PM 28.4 °F 14.7 °F 17.6 °F 64% 29.96 in 10.0 mi WSW 21.9 mph 28.8 mph N/A Rain Light Freezing Rain
11:55 PM 28.4 °F 17.5 °F 17.6 °F 64% 29.96 in 10.0 mi West 13.8 mph 25.3 mph N/A   Partly Cloudy